DW8522 Weather Reports


Display with metric or nautical units.
time (UTC)temp
F
wind
direction
speed
MPH
gust
MPH
rain 1hr
in
rain 24hr
in
rain mn
in
humidity
%
barometer
mb
20260509103044 59 172 0.0 0.0 0.00 0.28 0.27 92 1003.2
20260509101553 59 172 0.0 1.0 0.01 0.28 0.27 91 1003.2
20260509100041 60 209 1.0 4.0 0.01 0.28 0.27 91 1003.5
20260509094540 60 104 0.0 1.0 0.01 0.28 0.27 91 1003.5
20260509093039 59 149 0.0 2.0 0.01 0.28 0.27 91 1003.6
20260509091543 60 145 0.0 1.0 0.00 0.28 0.26 90 1003.6
20260509090042 60 145 0.0 1.0 0.00 0.28 0.26 89 1003.7
20260509084538 60 145 0.0 3.0 0.00 0.28 0.26 88 1003.6
20260509083037 61 169 0.0 2.0 0.00 0.28 0.26 88 1003.2
20260509081537 61 135 0.0 3.0 0.00 0.28 0.26 87 1003.0
20260509080043 62 214 1.0 4.0 0.00 0.28 0.26 87 1003.0
20260509074538 61 305 2.0 6.0 0.00 0.28 0.26 87 1003.0
20260509073039 61 212 1.0 4.0 0.00 0.28 0.26 87 1003.0
20260509071534 60 134 0.0 3.0 0.00 0.28 0.26 87 1003.1
20260509070034 61 158 0.0 3.0 0.00 0.28 0.26 86 1003.1
20260509064541 60 183 1.0 2.0 0.00 0.28 0.26 88 1003.0
20260509063036 60 142 0.0 1.0 0.00 0.28 0.26 88 1002.9
20260509061534 60 142 0.0 0.0 0.00 0.28 0.26 87 1003.0
20260509060033 61 143 0.0 2.0 0.00 0.28 0.26 87 1002.9
20260509054537 62 120 0.0 1.0 0.00 0.28 0.26 86 1002.6
20260509053031 63 215 0.0 4.0 0.00 0.28 0.26 85 1002.6
20260509051530 63 233 2.0 5.0 0.00 0.28 0.26 84 1002.6
20260509050030 64 131 2.0 6.0 0.00 0.28 0.26 82 1002.8
20260509044528 64 249 1.0 3.0 0.00 0.28 0.26 80 1002.8
20260509043026 65 183 0.0 3.0 0.00 0.28 0.26 79 1002.9
20260509041525 65 178 1.0 5.0 0.00 0.28 0.26 78 1002.9
20260509040035 66 332 3.0 6.0 0.00 0.28 0.26 79 1003.0
20260509034524 66 177 1.0 9.0 0.00 0.28 0.26 77 1002.9
20260509033023 67 135 3.0 6.0 0.00 0.28 0.26 76 1003.0
20260509031527 68 248 3.0 10.0 0.00 0.28 0.26 74 1002.9
20260509030018 68 325 4.0 9.0 0.00 0.28 0.26 75 1003.0
20260509024517 69 249 2.0 5.0 0.00 0.33 0.26 74 1003.2
20260509023015 67 316 1.0 5.0 0.00 0.33 0.26 80 1003.2
20260509021517 67 81 4.0 8.0 0.00 0.33 0.26 77 1003.3
20260509020012 67 193 3.0 6.0 0.00 0.33 0.26 78 1003.5
20260509014527 66 188 2.0 6.0 0.00 0.33 0.26 81 1003.6
20260509013009 65 187 1.0 4.0 0.00 0.33 0.26 80 1003.7
20260509011505 66 284 2.0 6.0 0.00 0.33 0.26 79 1004.0
20260509010003 68 218 4.0 11.0 0.00 0.33 0.26 72 1004.2
20260509004612 69 268 3.0 5.0 0.00 0.43 0.26 74 1004.2
20260509003103 68 173 2.0 7.0 0.00 0.43 0.26 76 1004.5
20260509001553 66 231 2.0 6.0 0.00 0.43 0.26 78 1004.8
20260509000051 66 245 4.0 11.0 0.00 0.43 0.26 76 1005.0
20260508234554 67 238 4.0 8.0 0.00 0.44 0.26 76 1005.2
20260508233054 68 229 4.0 8.0 0.00 0.44 0.26 76 1005.4
20260508231550 67 302 3.0 7.0 0.00 0.44 0.26 78 1005.6
20260508230117 67 284 3.0 8.0 0.00 0.44 0.26 79 1005.8
20260508224549 67 89 2.0 9.0 0.00 0.44 0.26 80 1006.0
20260508223044 67 5 3.0 10.0 0.00 0.44 0.26 82 1006.1
20260508221541 66 101 2.0 7.0 0.00 0.44 0.26 85 1006.1
20260508220109 65 285 2.0 7.0 0.00 0.44 0.26 88 1006.1
20260508214539 64 89 3.0 7.0 0.00 0.44 0.26 91 1006.2
20260508213038 63 221 2.0 6.0 0.00 0.44 0.26 95 1006.3
20260508211542 61 152 0.0 3.0 0.00 0.44 0.26 96 1006.3
20260508210036 60 191 1.0 4.0 0.00 0.44 0.26 96 1006.2
20260508204535 60 149 0.0 3.0 0.00 0.44 0.26 96 1006.3
20260508203034 60 108 0.0 2.0 0.00 0.44 0.26 97 1006.3
20260508201535 59 170 0.0 1.0 0.00 0.44 0.26 97 1006.3
20260508200035 58 170 0.0 5.0 0.00 0.44 0.26 97 1006.2
20260508194535 58 124 0.0 0.0 0.00 0.44 0.26 97 1006.1
20260508193031 57 124 0.0 0.0 0.00 0.44 0.26 97 1006.0
20260508191531 58 124 0.0 2.0 0.00 0.44 0.26 97 1006.0
20260508190034 57 108 0.0 3.0 0.00 0.44 0.26 96 1005.8
20260508184539 58 121 0.0 2.0 0.00 0.44 0.26 97 1005.8
20260508183027 57 122 0.0 1.0 0.00 0.44 0.26 96 1005.8
20260508181535 58 121 0.0 0.0 0.00 0.44 0.26 96 1005.8
20260508180022 59 121 0.0 1.0 0.00 0.44 0.26 96 1005.9
20260508174530 59 121 0.0 1.0 0.00 0.44 0.26 96 1005.8
20260508173018 60 120 0.0 1.0 0.00 0.44 0.26 96 1005.8
20260508171517 59 335 2.0 6.0 0.00 0.44 0.26 96 1005.7
20260508170016 59 124 0.0 1.0 0.00 0.44 0.26 96 1005.4
20260508164515 60 124 0.0 1.0 0.01 0.44 0.26 96 1005.2
20260508163017 60 124 0.0 1.0 0.01 0.44 0.26 96 1005.2
20260508161513 60 125 0.0 2.0 0.02 0.44 0.26 96 1005.6
20260508160009 60 123 0.0 0.0 0.03 0.44 0.26 96 1005.6
20260508154509 60 122 0.0 1.0 0.05 0.43 0.25 96 1005.7
20260508153005 60 120 0.0 1.0 0.05 0.43 0.25 96 1006.0
20260508151505 60 121 0.0 1.0 0.06 0.43 0.24 96 1006.5
20260508150004 60 121 0.0 1.0 0.21 0.41 0.23 95 1006.6
20260508144502 61 183 0.0 3.0 0.20 0.39 0.20 95 1006.4
20260508143100 62 161 1.0 4.0 0.20 0.39 0.20 95 1006.6
20260508141600 62 68 3.0 10.0 0.18 0.38 0.19 94 1006.9
20260508140051 64 285 4.0 15.0 0.01 0.20 0.02 93 1006.8
20260508134559 65 32 7.0 18.0 0.00 0.24 0.01 94 1006.0
20260508133047 65 271 7.0 18.0 0.01 0.24 0.01 94 1006.3
20260508131545 66 337 9.0 17.0 0.01 0.24 0.01 93 1006.5
20260508130041 66 35 6.0 16.0 0.01 0.24 0.01 93 1006.7
20260508124540 66 96 8.0 13.0 0.01 0.28 0.01 93 1006.7
20260508123037 66 134 5.0 13.0 0.00 0.27 0.00 93 1006.7
20260508121540 66 28 7.0 14.0 0.00 0.27 0.00 93 1007.5
20260508120031 66 68 6.0 13.0 0.00 0.27 0.00 93 1007.8
20260508114529 66 84 4.0 12.0 0.00 0.27 0.27 93 1008.1
20260508113028 65 8 4.0 9.0 0.02 0.27 0.27 93 1008.4
20260508111526 65 86 4.0 11.0 0.02 0.27 0.27 94 1008.5
20260508110024 65 70 3.0 11.0 0.02 0.27 0.27 94 1009.1
20260508104523 65 25 4.0 8.0 0.02 0.27 0.27 93 1009.1